BEESAT-4 (41619 NORAD) Tracking and Keplerian Element Data

This shows tracking and keplerian element data for the satellite.

Feedback or suggestion? Click here.




ElementValue
Catalog41619
NameBEESAT-4
Epoch Orbit15027
Epoch Day146.12652225
Epoch Year2019
RAAN208.7876
Inclination97.3689
Eccentricity0.0013133
Argument of Perigee104.9394
Mean Anonmoly255.3298
Mean Motion15.23061426
Decay Rate8.9E-06
L11 41619U 16040W 19146.12652225 .00000890 00000-0 40695-4 0 9993
L22 41619 97.3689 208.7876 0013133 104.9394 255.3298 15.23061426150273

Live tracking and technical data element details for BEESAT-4 (NORAD 41619). BEESAT-4 can be tracked NOW for your location showing map with azimuth and elevation plus other details from your city location.

Track the satellite on the map from your city or location and see movement details for azimuth, elevation, latitude, longitude, range, height, and movement on the map or in text.







IsCatalogInMostPopularTable: catalog: 41619, numindb: 224
Update: records affected: 1



GetName: 41619 BEESAT-4

Hit Count: updated at: Sun, 26 May 2019 18:57:30 GMT